Location: Carnetin
(48.9010°N, 2.7059°E)
Time: 04:20:26
(UTC+00:00)

USA 229 - Pass Details

Date: 06 June 2022
Orbit: 938 x 1274 km, 63.4° (Epoch: 24 May)

Event Time Altitude Azimuth Distance (km) Brightness Sun altitude
Rises 00:12:08 0° 305° (NW) 4,053 7.1 -18.3°
Reaches altitude 10° 00:17:13 10° 275° (W) 3,160 6.1 -18.2°
Maximum altitude 00:19:28 12° 258° (WSW) 3,069 5.9 -18.1°
Drops below altitude 10° 00:21:45 10° 240° (WSW) 3,208 5.8 -18.1°
Enters shadow 00:22:10 10° 237° (WSW) 3,255 5.8 -18.1°
